Princeton, MN

8:43 PM CDT on October 21, 2019 (GMT -0500)
Princeton Municipal

Weather History for KPNM - August, 2019

Change the Weather History Date:

Wednesday, August 21, 2019

  Actual Average Record
Temperature  
Mean Temperature 64 °F -  
Max Temperature 77 °F 76 °F 89 °F (2013)
Min Temperature 51 °F 55 °F 33 °F (2004)
Degree Days  
Heating Degree Days 1    
Growing Degree Days 14 (Base 50)    
Moisture  
Dew Point 54 °F    
Average Humidity 73    
Maximum Humidity 100    
Minimum Humidity 39    
Precipitation  
Precipitation 0.00 in - - ()
Sea Level Pressure  
Sea Level Pressure 30.06 in    
Wind  
Wind Speed 3 mph (WNW)    
Max Wind Speed 13 mph    
Max Gust Speed 16 mph    
Visibility 9 miles    
Events      
Averages and records for this station are not official NWS values.
T = Trace of Precipitation, MM = Missing Value Source: NWS Daily Summary

Daily Weather History Graph

Daily Weather History Graph

Search for Another Location

Airport or City:

Astronomy

Aug. 21, 2019 Rise Set
Actual Time 6:22 AM CDT 8:12 PM CDT
Civil Twilight 5:50 AM CDT 8:43 PM CDT
Nautical Twilight 5:11 AM CDT 9:22 PM CDT
Astronomical Twilight 4:29 AM CDT 10:04 PM CDT
Moon 11:12 PM CDT (8/21) 12:14 PM CDT (8/21)
Length of Visible Light 14h 53m
Length of Day
13h 50m
Waning Gibbous, 69% of the Moon is Illuminated
Aug 21
Waning Gibbous
Aug 23
Last Quarter
Aug 30
New
Sep 5
First Quarter
Sep 13
Full

Hourly Weather History & Observations

Time (CDT) Temp. Dew Point Humidity Pressure Visibility Wind Dir Wind Speed Gust Speed Precip Events Conditions
12:19 AM 62.6 °F 59.0 °F 88% 30.05 in 10.0 mi NW 3.5 mph - N/A   Clear
12:37 AM 62.6 °F 59.0 °F 88% 30.06 in 10.0 mi Calm Calm - N/A   Clear
12:55 AM 60.8 °F 59.0 °F 94% 30.07 in 10.0 mi Calm Calm - N/A   Clear
12:56 AM 60.8 °F 57.2 °F 88% 30.07 in 10.0 mi Calm Calm - N/A   Clear
1:15 AM 59.0 °F 57.2 °F 94% 30.07 in 10.0 mi Calm Calm - N/A   Clear
1:16 AM 59.0 °F 57.2 °F 94% 30.07 in 10.0 mi Calm Calm - N/A   Clear
1:35 AM 59.0 °F 57.2 °F 94% 30.07 in 10.0 mi Calm Calm - N/A   Clear
1:40 AM 59.0 °F 57.2 °F 94% 30.07 in 10.0 mi Calm Calm - N/A   Clear
1:58 AM 57.2 °F 55.4 °F 94% 30.08 in 10.0 mi Calm Calm - N/A   Clear
2:16 AM 55.4 °F 55.4 °F 100% 30.08 in 3.0 mi Calm Calm - N/A   Clear
2:35 AM 55.4 °F 55.4 °F 100% 30.07 in 4.0 mi Calm Calm - N/A   Clear
2:36 AM 55.4 °F 55.4 °F 100% 30.07 in 4.0 mi Calm Calm - N/A   Clear
2:55 AM 55.4 °F 55.4 °F 100% 30.08 in 10.0 mi Calm Calm - N/A   Clear
2:56 AM 55.4 °F 55.4 °F 100% 30.08 in 10.0 mi Calm Calm - N/A   Clear
3:19 AM 55.4 °F 53.6 °F 94% 30.07 in 5.0 mi Calm Calm - N/A   Clear
3:37 AM 55.4 °F 55.4 °F 100% 30.06 in 5.0 mi Calm Calm - N/A   Clear
3:55 AM 55.4 °F 53.6 °F 94% 30.05 in 7.0 mi Calm Calm - N/A   Clear
3:56 AM 53.6 °F 53.6 °F 100% 30.05 in 7.0 mi Calm Calm - N/A   Clear
4:15 AM 55.4 °F 53.6 °F 94% 30.04 in 10.0 mi Calm Calm - N/A   Clear
4:16 AM 55.4 °F 53.6 °F 94% 30.04 in 10.0 mi Calm Calm - N/A   Clear
4:35 AM 55.4 °F 53.6 °F 94% 30.03 in 10.0 mi NNW 3.5 mph - N/A   Clear
4:40 AM 55.4 °F 53.6 °F 94% 30.03 in 10.0 mi Calm Calm - N/A   Clear
4:58 AM 55.4 °F 53.6 °F 94% 30.01 in 10.0 mi Calm Calm - N/A   Clear
5:16 AM 53.6 °F 53.6 °F 100% 30.01 in 10.0 mi Calm Calm - N/A   Clear
5:35 AM 53.6 °F 53.6 °F 100% 30.02 in 10.0 mi Calm Calm - N/A   Clear
5:55 AM 53.6 °F 51.8 °F 94% 30.03 in 4.0 mi Calm Calm - N/A   Clear
5:56 AM 53.6 °F 51.8 °F 94% 30.03 in 4.0 mi Calm Calm - N/A   Clear
6:19 AM 51.8 °F 51.8 °F 100% 30.07 in 10.0 mi Calm Calm - N/A   Clear
6:37 AM 51.8 °F 50.0 °F 94% 30.08 in 1.8 mi Calm Calm - N/A   Clear
6:55 AM 51.8 °F 51.8 °F 100% 30.09 in 0.8 mi Calm Calm - N/A   Mist
7:15 AM 53.6 °F 53.6 °F 100% 30.09 in 10.0 mi Calm Calm - N/A   Clear
7:35 AM 55.4 °F 55.4 °F 100% 30.09 in 10.0 mi Calm Calm - N/A   Clear
7:40 AM 57.2 °F 55.4 °F 94% 30.09 in 10.0 mi Calm Calm - N/A   Clear
7:58 AM 59.0 °F 57.2 °F 94% 30.09 in 10.0 mi WNW 3.5 mph - N/A   Clear
8:16 AM 60.8 °F 57.2 °F 88% 30.08 in 10.0 mi NW 3.5 mph - N/A   Clear
8:35 AM 62.6 °F 57.2 °F 82% 30.09 in 10.0 mi West 3.5 mph - N/A   Clear
8:55 AM 62.6 °F 57.2 °F 82% 30.09 in 10.0 mi West 4.6 mph - N/A   Clear
8:56 AM 62.6 °F 57.2 °F 82% 30.09 in 10.0 mi West 4.6 mph - N/A   Clear
9:19 AM 66.2 °F 57.2 °F 73% 30.09 in 10.0 mi WNW 4.6 mph - N/A   Clear
9:37 AM 66.2 °F 55.4 °F 68% 30.09 in 10.0 mi WNW 5.8 mph - N/A   Clear
9:55 AM 68.0 °F 55.4 °F 64% 30.09 in 10.0 mi West 3.5 mph - N/A   Clear
10:15 AM 69.8 °F 51.8 °F 53% 30.09 in 10.0 mi WNW 5.8 mph - N/A   Clear
10:16 AM 69.8 °F 51.8 °F 53% 30.09 in 10.0 mi WNW 5.8 mph - N/A   Clear
10:35 AM 69.8 °F 51.8 °F 53% 30.10 in 10.0 mi West 6.9 mph - N/A   Clear
10:40 AM 69.8 °F 50.0 °F 49% 30.10 in 10.0 mi West 4.6 mph - N/A   Clear
10:58 AM 71.6 °F 50.0 °F 46% 30.10 in 10.0 mi WNW 3.5 mph - N/A   Clear
11:16 AM 71.6 °F 53.6 °F 53% 30.09 in 10.0 mi WNW 4.6 mph - N/A   Clear
11:35 AM 71.6 °F 53.6 °F 53% 30.08 in 10.0 mi WNW 6.9 mph - N/A   Clear
11:55 AM 73.4 °F 55.4 °F 53% 30.08 in 10.0 mi WSW 8.1 mph - N/A   Scattered Clouds
11:56 AM 73.4 °F 55.4 °F 53% 30.08 in 10.0 mi West 8.1 mph - N/A   Scattered Clouds
12:18 PM 73.4 °F 53.6 °F 50% 30.08 in 10.0 mi WNW 9.2 mph - N/A   Scattered Clouds
12:37 PM 73.4 °F 53.6 °F 50% 30.08 in 10.0 mi West 6.9 mph - N/A   Scattered Clouds
12:55 PM 75.2 °F 53.6 °F 47% 30.07 in 10.0 mi West 10.4 mph - N/A   Scattered Clouds
1:15 PM 75.2 °F 53.6 °F 47% 30.07 in 10.0 mi West 9.2 mph - N/A   Scattered Clouds
1:35 PM 73.4 °F 53.6 °F 50% 30.06 in 10.0 mi NW 10.4 mph - N/A   Scattered Clouds
1:58 PM 75.2 °F 51.8 °F 44% 30.06 in 10.0 mi NW 9.2 mph - N/A   Scattered Clouds
2:16 PM 75.2 °F 51.8 °F 44% 30.06 in 10.0 mi NW 8.1 mph 16.1 mph N/A   Scattered Clouds
2:35 PM 75.2 °F 51.8 °F 44% 30.06 in 10.0 mi West 5.8 mph - N/A   Clear
2:36 PM 75.2 °F 51.8 °F 44% 30.06 in 10.0 mi West 5.8 mph - N/A   Clear
2:55 PM 75.2 °F 51.8 °F 44% 30.06 in 10.0 mi WNW 8.1 mph - N/A   Scattered Clouds
3:19 PM 77.0 °F 50.0 °F 39% 30.06 in 10.0 mi West 12.7 mph 16.1 mph N/A   Scattered Clouds
3:36 PM 75.2 °F 50.0 °F 41% 30.06 in 10.0 mi WNW 6.9 mph - N/A   Clear
3:55 PM 75.2 °F 51.8 °F 44% 30.05 in 10.0 mi WNW 6.9 mph - N/A   Scattered Clouds
3:56 PM 75.2 °F 51.8 °F 44% 30.05 in 10.0 mi WNW 8.1 mph - N/A   Scattered Clouds
4:15 PM 73.4 °F 51.8 °F 47% 30.05 in 10.0 mi WNW 8.1 mph - N/A   Scattered Clouds
4:16 PM 73.4 °F 51.8 °F 47% 30.05 in 10.0 mi WNW 10.4 mph - N/A   Scattered Clouds
4:35 PM 73.4 °F 51.8 °F 47% 30.05 in 10.0 mi WNW 8.1 mph - N/A   Clear
4:40 PM 75.2 °F 51.8 °F 44% 30.05 in 10.0 mi WNW 12.7 mph - N/A   Clear
4:58 PM 73.4 °F 51.8 °F 47% 30.05 in 10.0 mi WNW 5.8 mph - N/A   Scattered Clouds
5:16 PM 73.4 °F 51.8 °F 47% 30.05 in 10.0 mi WNW 5.8 mph - N/A   Scattered Clouds
5:35 PM 73.4 °F 51.8 °F 47% 30.04 in 10.0 mi NW 6.9 mph - N/A   Clear
5:55 PM 75.2 °F 51.8 °F 44% 30.04 in 10.0 mi WNW 9.2 mph - N/A   Clear
5:56 PM 75.2 °F 51.8 °F 44% 30.04 in 10.0 mi WNW 9.2 mph - N/A   Clear
6:19 PM 73.4 °F 51.8 °F 47% 30.04 in 10.0 mi NW 5.8 mph - N/A   Clear
6:37 PM 73.4 °F 51.8 °F 47% 30.03 in 10.0 mi NW 5.8 mph - N/A   Clear
6:55 PM 73.4 °F 51.8 °F 47% 30.02 in 10.0 mi NW 5.8 mph - N/A   Clear
6:56 PM 73.4 °F 51.8 °F 47% 30.02 in 10.0 mi NW 5.8 mph - N/A   Clear
7:15 PM 71.6 °F 53.6 °F 53% 30.02 in 10.0 mi NW 6.9 mph - N/A   Clear
7:16 PM 71.6 °F 53.6 °F 53% 30.02 in 10.0 mi NW 6.9 mph - N/A   Clear
7:35 PM 69.8 °F 51.8 °F 53% 30.02 in 10.0 mi NNW 3.5 mph - N/A   Clear
7:40 PM 69.8 °F 51.8 °F 53% 30.02 in 10.0 mi NNW 3.5 mph - N/A   Clear
7:58 PM 66.2 °F 53.6 °F 64% 30.03 in 10.0 mi North 5.8 mph - N/A   Clear
8:16 PM 64.4 °F 53.6 °F 68% 30.03 in 10.0 mi Calm Calm - N/A   Scattered Clouds
8:35 PM 62.6 °F 53.6 °F 72% 30.03 in 10.0 mi Calm Calm - N/A   Clear
8:36 PM 62.6 °F 53.6 °F 72% 30.03 in 10.0 mi Calm Calm - N/A   Clear
8:55 PM 60.8 °F 55.4 °F 82% 30.04 in 10.0 mi Calm Calm - N/A   Clear
8:56 PM 60.8 °F 55.4 °F 82% 30.04 in 10.0 mi Calm Calm - N/A   Clear
9:19 PM 59.0 °F 55.4 °F 88% 30.05 in 10.0 mi Calm Calm - N/A   Clear
9:37 PM 57.2 °F 55.4 °F 94% 30.05 in 10.0 mi Calm Calm - N/A   Clear
9:55 PM 57.2 °F 55.4 °F 94% 30.05 in 10.0 mi Calm Calm - N/A   Clear
10:15 PM 55.4 °F 53.6 °F 94% 30.06 in 10.0 mi Calm Calm - N/A   Clear
10:35 PM 55.4 °F 53.6 °F 94% 30.06 in 10.0 mi Calm Calm - N/A   Clear
10:39 PM 53.6 °F 51.8 °F 94% 30.07 in 10.0 mi Calm Calm - N/A   Clear
10:58 PM 55.4 °F 53.6 °F 94% 30.07 in 10.0 mi Calm Calm - N/A   Clear
11:16 PM 53.6 °F 51.8 °F 94% 30.07 in 10.0 mi Calm Calm - N/A   Clear
11:35 PM 53.6 °F 51.8 °F 94% 30.08 in 10.0 mi Calm Calm - N/A   Clear
11:55 PM 53.6 °F 51.8 °F 94% 30.08 in 10.0 mi Calm Calm - N/A   Mostly Cloudy